Time,TemperatureF,DewpointF,PressureIn,WindDirection,WindDirectionDegrees,WindSpeedMPH,WindSpeedGustMPH,Humidity,HourlyPrecipIn,Conditions,Clouds,dailyrainin,SoftwareType,DateUTC
2013-03-14 00:00:00,27.9,23.1,29.74,WSW,250,0.0,0.0,82,0.00,,FEW060,0.00,VWS V14.01,2013-03-14 04:00:00,
2013-03-14 00:05:00,27.8,23.0,29.74,WSW,250,0.0,0.0,82,0.00,,FEW060,0.00,VWS V14.01,2013-03-14 04:05:00,
2013-03-14 00:10:00,27.8,23.0,29.74,WSW,250,0.0,0.0,82,0.00,,,0.00,WUHU216VWC,2013-03-14 04:10:00,
2013-03-14 00:15:00,27.6,22.2,29.74,WSW,250,0.0,0.0,80,0.00,,,0.00,WUHU216VWC,2013-03-14 04:15:00,
2013-03-14 00:20:00,27.5,22.5,29.75,WSW,250,0.0,0.0,81,0.00,,FEW060,0.00,VWS V14.01,2013-03-14 04:20:00,
2013-03-14 00:25:00,27.4,22.9,29.75,WSW,250,0.0,0.0,83,0.00,,,0.00,WUHU216VWC,2013-03-14 04:25:00,
2013-03-14 00:30:00,27.3,22.8,29.75,WSW,250,0.0,0.0,83,0.00,,,0.00,WUHU216VWC,2013-03-14 04:30:00,
2013-03-14 00:35:00,27.3,23.1,29.75,WSW,250,0.0,0.0,84,0.00,,FEW060,0.00,VWS V14.01,2013-03-14 04:35:00,
2013-03-14 00:40:00,27.2,23.0,29.75,WSW,250,0.0,0.0,84,0.00,,FEW060,0.00,VWS V14.01,2013-03-14 04:40:00,
2013-03-14 00:45:00,27.1,23.2,29.75,WSW,250,0.0,0.0,85,0.00,,FEW060,0.00,VWS V14.01,2013-03-14 04:45:00,
2013-03-14 00:50:00,27.1,23.5,29.75,WSW,250,0.0,0.0,86,0.00,,FEW060,0.00,VWS V14.01,2013-03-14 04:50:00,
2013-03-14 00:55:00,27.0,23.6,29.74,WSW,250,0.0,0.0,87,0.00,,FEW060,0.00,VWS V14.01,2013-03-14 04:55:00,
2013-03-14 01:00:00,26.9,23.6,29.74,WSW,250,0.0,0.0,87,0.00,,FEW060,0.00,VWS V14.01,2013-03-14 05:00:00,
2013-03-14 01:05:00,26.8,23.5,29.75,WSW,250,0.0,0.0,87,0.00,,FEW060,0.00,VWS V14.01,2013-03-14 05:05:00,
2013-03-14 01:10:00,26.8,23.5,29.75,WSW,250,0.0,0.0,87,0.00,,FEW060,0.00,VWS V14.01,2013-03-14 05:10:00,
2013-03-14 01:15:00,26.7,23.4,29.75,WSW,250,0.0,0.0,87,0.00,,FEW060,0.00,VWS V14.01,2013-03-14 05:15:00,
2013-03-14 01:20:00,26.7,23.6,29.74,WSW,250,0.0,0.0,88,0.00,,FEW060,0.00,VWS V14.01,2013-03-14 05:20:00,
2013-03-14 01:25:00,26.7,23.4,29.74,WSW,250,0.0,0.0,87,0.00,,,0.00,WUHU216VWC,2013-03-14 05:25:00,
2013-03-14 01:30:00,26.6,23.5,29.74,WSW,250,0.0,0.0,88,0.00,,FEW060,0.00,VWS V14.01,2013-03-14 05:30:00,
2013-03-14 01:35:00,26.6,23.3,29.74,WSW,250,0.0,0.0,87,0.00,,FEW060,0.00,VWS V14.01,2013-03-14 05:35:00,
2013-03-14 01:40:00,26.5,23.2,29.74,WSW,250,0.0,0.0,87,0.00,,,0.00,WUHU216VWC,2013-03-14 05:40:00,
2013-03-14 01:45:00,26.4,23.3,29.74,WSW,250,0.0,0.0,88,0.00,,FEW060,0.00,VWS V14.01,2013-03-14 05:45:00,
2013-03-14 01:50:00,26.4,23.1,29.74,WSW,250,0.0,0.0,87,0.00,,,0.00,WUHU216VWC,2013-03-14 05:50:00,
2013-03-14 01:55:00,26.3,23.2,29.74,WSW,250,0.0,0.0,88,0.00,,FEW060,0.00,VWS V14.01,2013-03-14 05:55:00,
2013-03-14 02:00:00,26.2,23.1,29.75,WSW,250,0.0,0.0,88,0.00,,FEW060,0.00,VWS V14.01,2013-03-14 06:00:00,
2013-03-14 02:05:00,26.1,23.0,29.74,WSW,250,0.0,0.0,88,0.00,,,0.00,WUHU216VWC,2013-03-14 06:05:00,
2013-03-14 02:10:00,26.1,23.0,29.74,WSW,250,0.0,0.0,88,0.00,,CLR,0.00,VWS V14.01,2013-03-14 06:10:00,
2013-03-14 02:15:00,26.0,23.2,29.74,WSW,250,0.0,0.0,89,0.00,,,0.00,WUHU216VWC,2013-03-14 06:15:00,
2013-03-14 02:20:00,25.9,22.8,29.74,WSW,250,0.0,0.0,88,0.00,,CLR,0.00,VWS V14.01,2013-03-14 06:20:00,
2013-03-14 02:25:00,25.8,23.0,29.74,WSW,250,0.0,0.0,89,0.00,,CLR,0.00,VWS V14.01,2013-03-14 06:25:00,
2013-03-14 02:30:00,25.8,23.0,29.74,WSW,250,0.0,0.0,89,0.00,,CLR,0.00,VWS V14.01,2013-03-14 06:30:00,
2013-03-14 02:35:00,25.8,23.0,29.74,WSW,250,0.0,0.0,89,0.00,,CLR,0.00,VWS V14.01,2013-03-14 06:35:00,
2013-03-14 02:40:00,25.7,22.9,29.74,WSW,250,0.0,0.0,89,0.00,,CLR,0.00,VWS V14.01,2013-03-14 06:40:00,
2013-03-14 02:45:00,25.7,22.9,29.74,WSW,250,0.0,0.0,89,0.00,,CLR,0.00,VWS V14.01,2013-03-14 06:45:00,
2013-03-14 02:50:00,25.6,22.8,29.74,WSW,250,0.0,0.0,89,0.00,,CLR,0.00,VWS V14.01,2013-03-14 06:50:00,
2013-03-14 02:55:00,25.6,22.8,29.74,WSW,250,0.0,0.0,89,0.00,,CLR,0.00,VWS V14.01,2013-03-14 06:55:00,
2013-03-14 03:00:00,25.6,22.8,29.74,WSW,250,0.0,0.0,89,0.00,,CLR,0.00,VWS V14.01,2013-03-14 07:00:00,
2013-03-14 03:05:00,25.6,22.8,29.74,WSW,250,0.0,0.0,89,0.00,,CLR,0.00,VWS V14.01,2013-03-14 07:05:00,
2013-03-14 03:10:00,25.5,22.7,29.73,WSW,250,0.0,0.0,89,0.00,,CLR,0.00,VWS V14.01,2013-03-14 07:10:00,
2013-03-14 03:15:00,25.4,22.6,29.73,WSW,250,0.0,0.0,89,0.00,,,0.00,WUHU216VWC,2013-03-14 07:15:00,
2013-03-14 03:20:00,25.3,22.8,29.74,WSW,250,0.0,0.0,90,0.00,,CLR,0.00,VWS V14.01,2013-03-14 07:20:00,
2013-03-14 03:25:00,25.3,22.8,29.74,WSW,250,0.0,0.0,90,0.00,,CLR,0.00,VWS V14.01,2013-03-14 07:25:00,
2013-03-14 03:30:00,25.3,22.8,29.73,WSW,250,0.0,0.0,90,0.00,,CLR,0.00,VWS V14.01,2013-03-14 07:30:00,
2013-03-14 03:35:00,25.3,22.8,29.73,WSW,250,0.0,0.0,90,0.00,,CLR,0.00,VWS V14.01,2013-03-14 07:35:00,
2013-03-14 03:40:00,25.2,22.7,29.73,WSW,250,0.0,0.0,90,0.00,,CLR,0.00,VWS V14.01,2013-03-14 07:40:00,
2013-03-14 03:45:00,25.2,22.7,29.73,WSW,250,0.0,0.0,90,0.00,,CLR,0.00,VWS V14.01,2013-03-14 07:45:00,
2013-03-14 03:50:00,25.2,22.7,29.73,WSW,250,0.0,0.0,90,0.00,,,0.00,WUHU216VWC,2013-03-14 07:50:00,
2013-03-14 03:55:00,25.3,23.0,29.73,WSW,250,0.0,0.0,91,0.00,,CLR,0.00,VWS V14.01,2013-03-14 07:55:00,
2013-03-14 04:00:00,25.4,23.1,29.73,WSW,250,0.0,0.0,91,0.00,,,0.00,WUHU216VWC,2013-03-14 08:00:00,
2013-03-14 04:05:00,25.4,23.1,29.73,WSW,250,0.0,0.0,91,0.00,,CLR,0.00,VWS V14.01,2013-03-14 08:05:00,
2013-03-14 04:10:00,25.6,23.3,29.73,WSW,250,0.0,0.0,91,0.00,,CLR,0.00,VWS V14.01,2013-03-14 08:10:00,
2013-03-14 04:15:00,25.8,23.5,29.73,WSW,250,0.0,0.0,91,0.00,,,0.00,WUHU216VWC,2013-03-14 08:15:00,
2013-03-14 04:20:00,26.0,23.7,29.73,WSW,250,0.0,0.0,91,0.00,,CLR,0.00,VWS V14.01,2013-03-14 08:20:00,
2013-03-14 04:25:00,26.1,23.8,29.73,WSW,250,0.0,0.0,91,0.00,,CLR,0.00,VWS V14.01,2013-03-14 08:25:00,
2013-03-14 04:30:00,26.1,23.8,29.73,WSW,250,0.0,0.0,91,0.00,,,0.00,WUHU216VWC,2013-03-14 08:30:00,
2013-03-14 04:35:00,26.1,23.8,29.72,WSW,250,0.0,0.0,91,0.00,,,0.00,WUHU216VWC,2013-03-14 08:35:00,
2013-03-14 04:40:00,26.2,23.9,29.73,WSW,250,0.0,0.0,91,0.00,,CLR,0.00,VWS V14.01,2013-03-14 08:40:00,
2013-03-14 04:45:00,26.2,23.7,29.72,WSW,250,0.0,0.0,90,0.00,,CLR,0.00,VWS V14.01,2013-03-14 08:45:00,
2013-03-14 04:50:00,26.2,23.7,29.73,WSW,250,0.0,0.0,90,0.00,,CLR,0.00,VWS V14.01,2013-03-14 08:50:00,
2013-03-14 04:55:00,26.2,23.7,29.73,WSW,250,0.0,0.0,90,0.00,,CLR,0.00,VWS V14.01,2013-03-14 08:55:00,
2013-03-14 04:59:00,26.1,23.6,29.73,WSW,250,0.0,0.0,90,0.00,,CLR,0.00,VWS V14.01,2013-03-14 08:59:00,
2013-03-14 05:00:00,26.1,23.6,29.73,WSW,248,0.0,0.0,90,0.00,,,0.00,VWS V14.01,2013-03-14 09:00:00,
2013-03-14 05:04:00,25.9,23.4,29.73,WSW,250,0.0,0.0,90,0.00,,FEW090,0.00,VWS V14.01,2013-03-14 09:04:00,
2013-03-14 05:09:00,25.7,23.2,29.73,WSW,250,0.0,1.0,90,0.00,,,0.00,WUHU216VWC,2013-03-14 09:09:00,
2013-03-14 05:14:00,25.7,23.4,29.73,WNW,299,0.0,1.0,91,0.00,,,0.00,WUHU216VWC,2013-03-14 09:14:00,
2013-03-14 05:19:00,25.6,23.3,29.73,WNW,299,0.0,1.0,91,0.00,,,0.00,WUHU216VWC,2013-03-14 09:19:00,
2013-03-14 05:24:00,25.6,23.3,29.73,WNW,299,0.0,0.0,91,0.00,,FEW090,0.00,VWS V14.01,2013-03-14 09:24:00,
2013-03-14 05:29:00,25.6,23.3,29.73,WNW,299,0.0,0.0,91,0.00,,FEW090,0.00,VWS V14.01,2013-03-14 09:29:00,
2013-03-14 05:30:00,25.6,23.3,29.73,WSW,248,0.0,2.0,91,0.00,,,0.00,VWS V14.01,2013-03-14 09:30:00,
2013-03-14 05:34:00,25.6,23.3,29.73,WNW,299,0.0,0.0,91,0.00,,FEW090,0.00,VWS V14.01,2013-03-14 09:34:00,
2013-03-14 05:39:00,25.7,23.4,29.74,WNW,299,0.0,0.0,91,0.00,,,0.00,WUHU216VWC,2013-03-14 09:39:00,
2013-03-14 05:44:00,25.7,23.4,29.74,WNW,300,0.0,0.0,91,0.00,,,0.00,WUHU216VWC,2013-03-14 09:44:00,
2013-03-14 05:49:00,25.8,23.3,29.74,WNW,299,0.0,0.0,90,0.00,,,0.00,WUHU216VWC,2013-03-14 09:49:00,
2013-03-14 05:54:00,26.1,23.6,29.74,West,263,2.0,3.0,90,0.00,,,0.00,WUHU216VWC,2013-03-14 09:54:00,
2013-03-14 05:59:00,27.2,21.3,29.74,WSW,246,1.0,8.0,78,0.00,,,0.00,WUHU216VWC,2013-03-14 09:59:00,
2013-03-14 06:00:00,27.3,21.4,29.74,West,270,0.0,12.0,78,0.00,,,0.00,VWS V14.01,2013-03-14 10:00:00,
2013-03-14 06:04:00,28.3,22.0,29.74,West,263,1.0,8.0,77,0.00,,FEW090,0.00,VWS V14.01,2013-03-14 10:04:00,
2013-03-14 06:09:00,28.9,21.7,29.74,West,263,2.0,4.0,74,0.00,,FEW090,0.00,VWS V14.01,2013-03-14 10:09:00,
2013-03-14 06:14:00,29.2,21.6,29.74,West,265,4.0,8.0,73,0.00,,,0.00,WUHU216VWC,2013-03-14 10:14:00,
2013-03-14 06:19:00,29.7,20.5,29.74,West,260,2.0,9.0,68,0.00,,FEW090,0.00,VWS V14.01,2013-03-14 10:19:00,
2013-03-14 06:24:00,30.1,20.1,29.74,SW,234,0.0,9.0,66,0.00,,,0.00,WUHU216VWC,2013-03-14 10:24:00,
2013-03-14 06:29:00,30.3,20.7,29.74,WNW,282,0.0,6.0,67,0.00,,FEW090,0.00,VWS V14.01,2013-03-14 10:29:00,
2013-03-14 06:30:00,30.3,20.7,29.74,West,270,1.0,11.0,67,0.00,,,0.00,VWS V14.01,2013-03-14 10:30:00,
2013-03-14 06:34:00,30.2,20.6,29.74,WSW,247,0.0,7.0,67,0.00,,,0.00,WUHU216VWC,2013-03-14 10:34:00,
2013-03-14 06:39:00,30.2,20.6,29.74,WSW,247,0.0,2.0,67,0.00,,FEW090,0.00,VWS V14.01,2013-03-14 10:39:00,
2013-03-14 06:44:00,30.2,20.6,29.74,WSW,247,1.0,2.0,67,0.00,,FEW090,0.00,VWS V14.01,2013-03-14 10:44:00,
2013-03-14 06:49:00,30.3,20.3,29.74,WSW,256,2.0,5.0,66,0.00,,FEW090,0.00,VWS V14.01,2013-03-14 10:49:00,
2013-03-14 06:54:00,30.4,20.4,29.74,West,267,2.0,5.0,66,0.00,,FEW090,0.00,VWS V14.01,2013-03-14 10:54:00,
2013-03-14 06:59:00,30.4,20.1,29.74,WSW,257,3.0,6.0,65,0.00,,FEW090,0.00,VWS V14.01,2013-03-14 10:59:00,
2013-03-14 07:00:00,30.4,20.1,29.74,WSW,248,1.0,8.0,65,0.00,,,0.00,VWS V14.01,2013-03-14 11:00:00,
2013-03-14 07:04:00,30.4,20.4,29.75,WSW,257,0.0,6.0,66,0.00,,OVC085,0.00,VWS V14.01,2013-03-14 11:04:00,
2013-03-14 07:09:00,30.5,20.5,29.75,West,262,2.0,4.0,66,0.00,,OVC085,0.00,VWS V14.01,2013-03-14 11:09:00,
2013-03-14 07:14:00,30.4,20.4,29.75,West,270,0.0,4.0,66,0.00,,OVC085,0.00,VWS V14.01,2013-03-14 11:14:00,
2013-03-14 07:19:00,30.4,20.1,29.75,West,261,4.0,5.0,65,0.00,,OVC085,0.00,VWS V14.01,2013-03-14 11:19:00,
2013-03-14 07:24:00,30.4,20.1,29.75,West,261,1.0,5.0,65,0.00,,OVC085,0.00,VWS V14.01,2013-03-14 11:24:00,
2013-03-14 07:29:00,30.4,19.7,29.75,West,260,0.0,6.0,64,0.00,,OVC085,0.00,VWS V14.01,2013-03-14 11:29:00,
2013-03-14 07:30:00,30.4,20.1,29.75,West,270,2.0,7.0,65,0.00,,,0.00,VWS V14.01,2013-03-14 11:30:00,
2013-03-14 07:34:00,30.4,20.4,29.75,West,260,0.0,6.0,66,0.00,,,0.00,WUHU216VWC,2013-03-14 11:34:00,
2013-03-14 07:39:00,30.4,20.4,29.75,SW,217,2.0,3.0,66,0.00,,OVC085,0.00,VWS V14.01,2013-03-14 11:39:00,
2013-03-14 07:44:00,30.4,20.1,29.75,NW,305,0.0,7.0,65,0.00,,OVC085,0.00,VWS V14.01,2013-03-14 11:44:00,
2013-03-14 07:49:00,30.5,20.1,29.75,West,279,1.0,7.0,65,0.00,,OVC085,0.00,VWS V14.01,2013-03-14 11:49:00,
2013-03-14 07:54:00,30.5,20.2,29.75,West,261,0.0,7.0,65,0.00,,,0.00,WUHU216VWC,2013-03-14 11:54:00,
2013-03-14 07:59:00,30.6,21.0,29.75,West,261,0.0,2.0,67,0.00,,OVC085,0.00,VWS V14.01,2013-03-14 11:59:00,
2013-03-14 08:00:00,30.6,20.6,29.75,West,270,1.0,7.0,66,0.00,,,0.00,VWS V14.01,2013-03-14 12:00:00,
2013-03-14 08:04:00,30.7,21.1,29.75,West,261,1.0,2.0,67,0.00,,OVC085,0.00,VWS V14.01,2013-03-14 12:04:00,
2013-03-14 08:09:00,30.7,20.7,29.75,WSW,246,2.0,5.0,66,0.00,,OVC085,0.00,VWS V14.01,2013-03-14 12:09:00,
2013-03-14 08:14:00,30.8,20.1,29.75,West,275,2.0,8.0,64,0.00,,,0.00,WUHU216VWC,2013-03-14 12:14:00,
2013-03-14 08:19:00,31.0,20.3,29.75,WSW,250,3.0,4.0,64,0.00,,OVC085,0.00,VWS V14.01,2013-03-14 12:19:00,
2013-03-14 08:24:00,31.0,20.3,29.75,WSW,250,4.0,5.0,64,0.00,,OVC085,0.00,VWS V14.01,2013-03-14 12:24:00,
2013-03-14 08:29:00,31.1,19.2,29.76,West,267,1.0,5.0,61,0.00,,OVC085,0.00,VWS V14.01,2013-03-14 12:29:00,
2013-03-14 08:30:00,31.1,19.6,29.76,West,270,2.0,8.0,62,0.00,,,0.00,VWS V14.01,2013-03-14 12:30:00,
2013-03-14 08:34:00,31.2,20.1,29.75,West,259,2.0,5.0,63,0.00,,,0.00,WUHU216VWC,2013-03-14 12:34:00,
2013-03-14 08:39:00,31.3,19.4,29.76,SW,228,5.0,9.0,61,0.00,,OVC085,0.00,VWS V14.01,2013-03-14 12:39:00,
2013-03-14 08:44:00,31.4,19.9,29.76,West,267,3.0,11.0,62,0.00,,OVC085,0.00,VWS V14.01,2013-03-14 12:44:00,
2013-03-14 08:49:00,31.5,19.6,29.76,West,272,6.0,6.0,61,0.00,,OVC085,0.00,VWS V14.01,2013-03-14 12:49:00,
2013-03-14 08:54:00,31.5,19.2,29.76,West,279,0.0,6.0,60,0.00,,OVC085,0.00,VWS V14.01,2013-03-14 12:54:00,
2013-03-14 08:59:00,31.6,20.5,29.76,WSW,253,3.0,4.0,63,0.00,,OVC085,0.00,VWS V14.01,2013-03-14 12:59:00,
2013-03-14 09:00:00,31.7,19.8,29.76,West,270,3.0,11.0,61,0.00,,,0.00,VWS V14.01,2013-03-14 13:00:00,
2013-03-14 09:04:00,31.8,19.9,29.76,West,264,1.0,4.0,61,0.00,,OVC085,0.00,VWS V14.01,2013-03-14 13:04:00,
2013-03-14 09:09:00,31.9,19.6,29.76,WNW,293,5.0,5.0,60,0.00,,OVC085,0.00,VWS V14.01,2013-03-14 13:09:00,
2013-03-14 09:14:00,31.9,19.6,29.75,WSW,244,8.0,8.0,60,0.00,,,0.00,WUHU216VWC,2013-03-14 13:14:00,
2013-03-14 09:19:00,31.9,19.2,29.76,West,263,3.0,8.0,59,0.00,,OVC085,0.00,VWS V14.01,2013-03-14 13:19:00,
2013-03-14 09:24:00,31.9,18.8,29.76,West,263,4.0,8.0,58,0.00,,OVC085,0.00,VWS V14.01,2013-03-14 13:24:00,
2013-03-14 09:29:00,31.9,18.8,29.75,West,273,7.0,7.0,58,0.00,,OVC085,0.00,VWS V14.01,2013-03-14 13:29:00,
2013-03-14 09:30:00,32.0,18.5,29.75,West,270,3.0,12.0,57,0.00,,,0.00,VWS V14.01,2013-03-14 13:30:00,
2013-03-14 09:34:00,31.9,18.8,29.75,West,271,3.0,9.0,58,0.00,,OVC085,0.00,VWS V14.01,2013-03-14 13:34:00,
2013-03-14 09:39:00,32.0,18.5,29.75,West,274,1.0,9.0,57,0.00,,OVC085,0.00,VWS V14.01,2013-03-14 13:39:00,
2013-03-14 09:44:00,32.0,18.1,29.75,West,263,1.0,9.0,56,0.00,,,0.00,WUHU216VWC,2013-03-14 13:44:00,
2013-03-14 09:49:00,32.1,18.6,29.75,WSW,252,5.0,8.0,57,0.00,,OVC085,0.00,VWS V14.01,2013-03-14 13:49:00,
2013-03-14 09:54:00,32.2,17.9,29.75,West,266,3.0,9.0,55,0.00,,OVC085,0.00,VWS V14.01,2013-03-14 13:54:00,
2013-03-14 09:59:00,32.4,18.5,29.75,West,272,1.0,9.0,56,0.00,,,0.00,WUHU216VWC,2013-03-14 13:59:00,
2013-03-14 10:00:00,32.4,18.0,29.75,West,270,3.0,14.0,55,0.00,,,0.00,VWS V14.01,2013-03-14 14:00:00,
2013-03-14 10:04:00,32.4,18.5,29.75,WNW,290,0.0,11.0,56,0.00,,BKN070,0.00,VWS V14.01,2013-03-14 14:04:00,
2013-03-14 10:09:00,32.4,18.0,29.75,West,281,6.0,9.0,55,0.00,,BKN070,0.00,VWS V14.01,2013-03-14 14:09:00,
2013-03-14 10:14:00,32.4,18.0,29.75,SW,231,2.0,10.0,55,0.00,,BKN070,0.00,VWS V14.01,2013-03-14 14:14:00,
2013-03-14 10:19:00,32.5,17.7,29.75,SW,227,4.0,12.0,54,0.00,,,0.00,WUHU216VWC,2013-03-14 14:19:00,
2013-03-14 10:24:00,32.5,17.7,29.75,West,259,4.0,12.0,54,0.00,,BKN070,0.00,VWS V14.01,2013-03-14 14:24:00,
2013-03-14 10:29:00,32.6,17.8,29.75,WSW,250,3.0,8.0,54,0.00,,BKN070,0.00,VWS V14.01,2013-03-14 14:29:00,
2013-03-14 10:30:00,32.6,17.8,29.75,WSW,248,4.0,14.0,54,0.00,,,0.00,VWS V14.01,2013-03-14 14:30:00,
2013-03-14 10:34:00,32.7,18.3,29.75,WSW,250,5.0,12.0,55,0.00,,,0.00,WUHU216VWC,2013-03-14 14:34:00,
2013-03-14 10:39:00,32.7,17.5,29.74,SSW,202,2.0,9.0,53,0.00,,BKN070,0.00,VWS V14.01,2013-03-14 14:39:00,
2013-03-14 10:44:00,32.8,17.1,29.74,West,267,1.0,12.0,52,0.00,,,0.00,WUHU216VWC,2013-03-14 14:44:00,
2013-03-14 10:49:00,32.8,17.1,29.75,WSW,253,2.0,12.0,52,0.00,,BKN070,0.00,VWS V14.01,2013-03-14 14:49:00,
2013-03-14 10:54:00,33.0,18.2,29.74,WSW,257,3.0,6.0,54,0.00,,BKN070,0.00,VWS V14.01,2013-03-14 14:54:00,
2013-03-14 10:59:00,33.2,17.5,29.74,NW,304,0.0,4.0,52,0.00,,BKN070,0.00,VWS V14.01,2013-03-14 14:59:00,
2013-03-14 11:00:00,33.3,17.6,29.74,WSW,248,3.0,13.0,52,0.00,,,0.00,VWS V14.01,2013-03-14 15:00:00,
2013-03-14 11:04:00,33.4,17.2,29.74,West,266,0.0,7.0,51,0.00,,,0.00,WUHU216VWC,2013-03-14 15:04:00,
2013-03-14 11:09:00,33.7,18.4,29.74,WSW,257,0.0,7.0,53,0.00,,OVC090,0.00,VWS V14.01,2013-03-14 15:09:00,
2013-03-14 11:14:00,34.1,18.3,29.73,WSW,247,7.0,7.0,52,0.00,,OVC090,0.00,VWS V14.01,2013-03-14 15:14:00,
2013-03-14 11:19:00,34.3,17.6,29.73,NW,306,4.0,14.0,50,0.00,,,0.00,WUHU216VWC,2013-03-14 15:19:00,
2013-03-14 11:24:00,34.5,18.2,29.73,SW,236,4.0,14.0,51,0.00,,OVC090,0.00,VWS V14.01,2013-03-14 15:24:00,
2013-03-14 11:29:00,34.6,18.3,29.73,West,261,3.0,14.0,51,0.00,,,0.00,WUHU216VWC,2013-03-14 15:29:00,
2013-03-14 11:30:00,34.6,17.9,29.73,WSW,248,3.0,14.0,50,0.00,,,0.00,VWS V14.01,2013-03-14 15:30:00,
2013-03-14 11:34:00,34.8,18.1,29.73,West,273,0.0,8.0,50,0.00,,OVC090,0.00,VWS V14.01,2013-03-14 15:34:00,
2013-03-14 11:39:00,35.0,18.7,29.73,WSW,239,3.0,8.0,51,0.00,,OVC090,0.00,VWS V14.01,2013-03-14 15:39:00,
2013-03-14 11:44:00,34.8,18.1,29.72,West,268,3.0,8.0,50,0.00,,,0.00,WUHU216VWC,2013-03-14 15:44:00,
2013-03-14 11:49:00,35.1,19.3,29.72,West,260,6.0,8.0,52,0.00,,,0.00,WUHU216VWC,2013-03-14 15:49:00,
2013-03-14 11:54:00,35.7,19.4,29.72,WSW,254,4.0,10.0,51,0.00,,OVC090,0.00,VWS V14.01,2013-03-14 15:54:00,
2013-03-14 11:59:00,35.6,17.9,29.72,WSW,250,7.0,10.0,48,0.00,,,0.00,WUHU216VWC,2013-03-14 15:59:00,
2013-03-14 12:00:00,35.5,17.8,29.72,WSW,248,4.0,12.0,48,0.00,,,0.00,VWS V14.01,2013-03-14 16:00:00,
2013-03-14 12:04:00,35.2,18.0,29.72,SW,229,5.0,7.0,49,0.00,,BKN080,0.00,VWS V14.01,2013-03-14 16:04:00,
2013-03-14 12:09:00,35.3,18.1,29.72,WSW,258,4.0,10.0,49,0.00,,,0.00,WUHU216VWC,2013-03-14 16:09:00,
2013-03-14 12:14:00,35.1,17.9,29.72,West,280,4.0,10.0,49,0.00,,BKN080,0.00,VWS V14.01,2013-03-14 16:14:00,
2013-03-14 12:19:00,34.9,16.7,29.72,North,350,2.0,8.0,47,0.00,,BKN080,0.00,VWS V14.01,2013-03-14 16:19:00,
2013-03-14 12:24:00,34.5,16.9,29.72,WSW,246,3.0,4.0,48,0.00,,BKN080,0.00,VWS V14.01,2013-03-14 16:24:00,
2013-03-14 12:29:00,34.5,17.8,29.71,WSW,244,3.0,7.0,50,0.00,,BKN080,0.00,VWS V14.01,2013-03-14 16:29:00,
2013-03-14 12:30:00,34.4,16.8,29.72,WSW,248,3.0,14.0,48,0.00,,,0.00,VWS V14.01,2013-03-14 16:30:00,
2013-03-14 12:34:00,34.3,17.1,29.71,West,271,1.0,9.0,49,0.00,,BKN080,0.00,VWS V14.01,2013-03-14 16:34:00,
2013-03-14 12:39:00,34.4,16.8,29.71,NW,317,0.0,9.0,48,0.00,,BKN080,0.00,VWS V14.01,2013-03-14 16:39:00,
2013-03-14 12:44:00,34.4,16.8,29.71,WSW,257,4.0,9.0,48,0.00,,,0.00,WUHU216VWC,2013-03-14 16:44:00,
2013-03-14 12:49:00,34.4,17.2,29.71,WSW,248,2.0,9.0,49,0.00,,,0.00,WUHU216VWC,2013-03-14 16:49:00,
2013-03-14 12:54:00,34.7,18.0,29.71,WSW,238,6.0,8.0,50,0.00,,BKN080,0.00,VWS V14.01,2013-03-14 16:54:00,
2013-03-14 12:59:00,34.5,16.8,29.71,WSW,245,8.0,12.0,48,0.00,,,0.00,WUHU216VWC,2013-03-14 16:59:00,
2013-03-14 13:00:00,34.4,16.8,29.71,WSW,248,4.0,13.0,48,0.00,,,0.00,VWS V14.01,2013-03-14 17:00:00,
2013-03-14 13:04:00,34.0,16.4,29.71,WNW,286,5.0,12.0,48,0.00,,,0.00,WUHU216VWC,2013-03-14 17:04:00,
2013-03-14 13:09:00,33.9,17.2,29.70,West,259,5.0,11.0,50,0.00,,BKN080,0.00,VWS V14.01,2013-03-14 17:09:00,
2013-03-14 13:14:00,34.0,17.3,29.70,West,259,4.0,12.0,50,0.00,,BKN080,0.00,VWS V14.01,2013-03-14 17:14:00,
2013-03-14 13:19:00,33.7,17.0,29.70,SW,221,4.0,12.0,50,0.00,,BKN080,0.00,VWS V14.01,2013-03-14 17:19:00,
2013-03-14 13:24:00,33.7,17.5,29.70,West,274,3.0,10.0,51,0.00,,BKN080,0.00,VWS V14.01,2013-03-14 17:24:00,
2013-03-14 13:29:00,33.7,17.0,29.70,West,277,5.0,10.0,50,0.00,,BKN080,0.00,VWS V14.01,2013-03-14 17:29:00,
2013-03-14 13:30:00,33.7,17.5,29.70,WSW,248,4.0,12.0,51,0.00,,,0.00,VWS V14.01,2013-03-14 17:30:00,
2013-03-14 13:34:00,33.8,17.1,29.70,West,281,1.0,14.0,50,0.00,,BKN080,0.00,VWS V14.01,2013-03-14 17:34:00,
2013-03-14 13:39:00,33.9,16.8,29.70,WSW,248,5.0,14.0,49,0.00,,BKN080,0.00,VWS V14.01,2013-03-14 17:39:00,
2013-03-14 13:44:00,33.8,16.7,29.70,SW,223,3.0,11.0,49,0.00,,BKN080,0.00,VWS V14.01,2013-03-14 17:44:00,
2013-03-14 13:49:00,34.2,17.5,29.70,SW,225,3.0,11.0,50,0.00,,BKN080,0.00,VWS V14.01,2013-03-14 17:49:00,
2013-03-14 13:54:00,34.2,17.0,29.69,WSW,248,6.0,10.0,49,0.00,,BKN080,0.00,VWS V14.01,2013-03-14 17:54:00,
2013-03-14 13:59:00,34.0,15.9,29.69,NW,306,1.0,10.0,47,0.00,,,0.00,WUHU216VWC,2013-03-14 17:59:00,
2013-03-14 14:00:00,33.9,16.8,29.69,WSW,248,5.0,16.0,49,0.00,,,0.00,VWS V14.01,2013-03-14 18:00:00,
2013-03-14 14:04:00,33.9,16.8,29.70,WSW,241,3.0,8.0,49,0.00,,BKN080,0.00,VWS V14.01,2013-03-14 18:04:00,
2013-03-14 14:09:00,33.6,17.0,29.69,SW,225,6.0,13.0,50,0.00,,,0.00,WUHU216VWC,2013-03-14 18:09:00,
2013-03-14 14:14:00,33.5,16.9,29.69,WSW,240,4.0,12.0,50,0.00,,BKN080,0.00,VWS V14.01,2013-03-14 18:14:00,
2013-03-14 14:19:00,33.4,16.3,29.69,WSW,242,2.0,13.0,49,0.00,,,0.00,WUHU216VWC,2013-03-14 18:19:00,
2013-03-14 14:24:00,33.4,15.8,29.69,West,273,4.0,10.0,48,0.00,,BKN080,0.00,VWS V14.01,2013-03-14 18:24:00,
2013-03-14 14:29:00,33.3,16.7,29.69,WSW,257,3.0,7.0,50,0.00,,BKN080,0.00,VWS V14.01,2013-03-14 18:29:00,
2013-03-14 14:30:00,33.3,17.1,29.69,WSW,248,4.0,13.0,51,0.00,,,0.00,VWS V14.01,2013-03-14 18:30:00,
2013-03-14 14:34:00,33.4,16.8,29.69,West,278,4.0,12.0,50,0.00,,BKN080,0.00,VWS V14.01,2013-03-14 18:34:00,
2013-03-14 14:39:00,33.6,17.0,29.69,West,279,7.0,12.0,50,0.00,,BKN080,0.00,VWS V14.01,2013-03-14 18:39:00,
2013-03-14 14:44:00,33.5,15.9,29.69,SW,223,5.0,9.0,48,0.00,,BKN080,0.00,VWS V14.01,2013-03-14 18:44:00,
2013-03-14 14:49:00,33.5,16.4,29.68,WNW,287,0.0,8.0,49,0.00,,BKN080,0.00,VWS V14.01,2013-03-14 18:49:00,
2013-03-14 14:54:00,33.6,17.0,29.68,WNW,284,1.0,8.0,50,0.00,,BKN080,0.00,VWS V14.01,2013-03-14 18:54:00,
2013-03-14 14:59:00,33.9,16.8,29.68,WSW,257,5.0,8.0,49,0.00,,,0.00,WUHU216VWC,2013-03-14 18:59:00,
2013-03-14 15:00:00,33.9,17.2,29.69,WSW,248,3.0,12.0,50,0.00,,,0.00,VWS V14.01,2013-03-14 19:00:00,
2013-03-14 15:04:00,33.8,16.2,29.69,West,267,2.0,12.0,48,0.00,,BKN080,0.00,VWS V14.01,2013-03-14 19:04:00,
2013-03-14 15:09:00,33.7,16.1,29.68,SW,234,5.0,12.0,48,0.00,,BKN080,0.00,VWS V14.01,2013-03-14 19:09:00,
2013-03-14 15:14:00,33.7,16.6,29.68,WSW,252,3.0,9.0,49,0.00,,BKN080,0.00,VWS V14.01,2013-03-14 19:14:00,
2013-03-14 15:19:00,33.8,16.2,29.68,WSW,247,4.0,9.0,48,0.00,,BKN080,0.00,VWS V14.01,2013-03-14 19:19:00,
2013-03-14 15:24:00,33.9,15.8,29.68,West,280,4.0,8.0,47,0.00,,BKN080,0.00,VWS V14.01,2013-03-14 19:24:00,
2013-03-14 15:29:00,33.9,16.8,29.68,WSW,247,5.0,9.0,49,0.00,,,0.00,WUHU216VWC,2013-03-14 19:29:00,
2013-03-14 15:30:00,34.0,16.9,29.68,WSW,248,4.0,17.0,49,0.00,,,0.00,VWS V14.01,2013-03-14 19:30:00,
2013-03-14 15:34:00,33.9,16.3,29.68,WNW,285,4.0,17.0,48,0.00,,BKN080,0.00,VWS V14.01,2013-03-14 19:34:00,
2013-03-14 15:39:00,33.9,16.8,29.68,WSW,248,8.0,11.0,49,0.00,,BKN080,0.00,VWS V14.01,2013-03-14 19:39:00,
2013-03-14 15:44:00,33.8,16.7,29.68,WSW,256,7.0,17.0,49,0.00,,,0.00,WUHU216VWC,2013-03-14 19:44:00,
2013-03-14 15:49:00,33.6,17.0,29.68,WSW,246,5.0,13.0,50,0.00,,BKN080,0.00,VWS V14.01,2013-03-14 19:49:00,
2013-03-14 15:54:00,33.6,17.0,29.68,West,275,5.0,9.0,50,0.00,,BKN080,0.00,VWS V14.01,2013-03-14 19:54:00,
2013-03-14 15:59:00,34.0,16.9,29.68,WSW,250,3.0,9.0,49,0.00,,BKN080,0.00,VWS V14.01,2013-03-14 19:59:00,
2013-03-14 16:00:00,34.1,17.0,29.68,WSW,248,6.0,17.0,49,0.00,,,0.00,VWS V14.01,2013-03-14 20:00:00,
2013-03-14 16:04:00,34.5,16.9,29.68,West,261,10.0,12.0,48,0.00,,BKN080,0.00,VWS V14.01,2013-03-14 20:04:00,
2013-03-14 16:09:00,34.4,16.8,29.68,West,265,4.0,12.0,48,0.00,,,0.00,WUHU216VWC,2013-03-14 20:09:00,
2013-03-14 16:14:00,34.2,17.0,29.69,West,277,5.0,12.0,49,0.00,,,0.00,WUHU216VWC,2013-03-14 20:14:00,
2013-03-14 16:19:00,33.6,16.5,29.69,WSW,258,2.0,11.0,49,0.00,,BKN080,0.00,VWS V14.01,2013-03-14 20:19:00,
2013-03-14 16:23:00,33.4,17.2,29.69,WSW,241,0.0,11.0,51,0.00,,,0.00,WUHU216VWC,2013-03-14 20:23:00,
2013-03-14 16:29:00,33.8,18.0,29.69,West,274,6.0,8.0,52,0.00,,BKN080,0.00,VWS V14.01,2013-03-14 20:29:00,
2013-03-14 16:30:00,33.9,17.2,29.69,West,270,4.0,14.0,50,0.00,,,0.00,VWS V14.01,2013-03-14 20:30:00,
2013-03-14 16:33:00,34.0,17.3,29.69,SW,219,1.0,8.0,50,0.00,,BKN080,0.00,VWS V14.01,2013-03-14 20:33:00,
2013-03-14 16:38:00,34.2,18.0,29.69,West,259,5.0,11.0,51,0.00,,BKN080,0.00,VWS V14.01,2013-03-14 20:38:00,
2013-03-14 16:43:00,34.1,17.9,29.69,WSW,244,5.0,11.0,51,0.00,,,0.00,WUHU216VWC,2013-03-14 20:43:00,
2013-03-14 16:48:00,33.9,16.8,29.69,West,277,6.0,13.0,49,0.00,,,0.00,WUHU216VWC,2013-03-14 20:48:00,
2013-03-14 16:53:00,33.5,17.3,29.70,WSW,250,7.0,14.0,51,0.00,,,0.00,WUHU216VWC,2013-03-14 20:53:00,
2013-03-14 16:58:00,33.4,18.1,29.70,SW,234,6.0,14.0,53,0.00,,BKN080,0.00,VWS V14.01,2013-03-14 20:58:00,
2013-03-14 17:00:00,33.3,18.0,29.70,WSW,248,5.0,16.0,53,0.00,,,0.00,VWS V14.01,2013-03-14 21:00:00,
2013-03-14 17:03:00,33.1,17.0,29.70,West,267,6.0,15.0,51,0.00,,BKN080,0.00,VWS V14.01,2013-03-14 21:03:00,
2013-03-14 17:08:00,32.7,17.9,29.70,WNW,282,1.0,15.0,54,0.00,,BKN080,0.00,VWS V14.01,2013-03-14 21:08:00,
2013-03-14 17:13:00,32.5,17.3,29.71,West,272,3.0,15.0,53,0.00,,,0.00,WUHU216VWC,2013-03-14 21:13:00,
2013-03-14 17:18:00,32.3,16.7,29.71,West,265,3.0,10.0,52,0.00,,BKN080,0.00,VWS V14.01,2013-03-14 21:18:00,
2013-03-14 17:23:00,32.0,16.8,29.71,WSW,243,5.0,10.0,53,0.00,,BKN080,0.00,VWS V14.01,2013-03-14 21:23:00,
2013-03-14 17:28:00,32.0,17.3,29.71,West,279,8.0,10.0,54,0.00,,,0.00,WUHU216VWC,2013-03-14 21:28:00,
2013-03-14 17:30:00,32.0,17.2,29.71,West,270,5.0,18.0,54,0.00,,,0.00,VWS V14.01,2013-03-14 21:30:00,
2013-03-14 17:33:00,31.7,17.0,29.71,West,273,5.0,10.0,54,0.00,,BKN080,0.00,VWS V14.01,2013-03-14 21:33:00,
2013-03-14 17:38:00,31.2,16.5,29.71,WSW,253,5.0,10.0,54,0.00,,BKN080,0.00,VWS V14.01,2013-03-14 21:38:00,
2013-03-14 17:43:00,30.8,16.5,29.72,West,260,5.0,10.0,55,0.00,,BKN080,0.00,VWS V14.01,2013-03-14 21:43:00,
2013-03-14 17:48:00,30.7,16.0,29.72,WSW,238,2.0,6.0,54,0.00,,BKN080,0.00,VWS V14.01,2013-03-14 21:48:00,
2013-03-14 17:53:00,30.6,15.9,29.72,WSW,252,3.0,6.0,54,0.00,,BKN080,0.00,VWS V14.01,2013-03-14 21:53:00,
2013-03-14 17:58:00,30.5,15.4,29.72,WNW,290,0.0,6.0,53,0.00,,,0.00,WUHU216VWC,2013-03-14 21:58:00,
2013-03-14 18:00:00,30.5,15.9,29.72,West,270,3.0,11.0,54,0.00,,,0.00,VWS V14.01,2013-03-14 22:00:00,
2013-03-14 18:03:00,30.4,15.8,29.72,WSW,248,5.0,11.0,54,0.00,,,0.00,WUHU216VWC,2013-03-14 22:03:00,
2013-03-14 18:08:00,30.3,15.7,29.73,WSW,250,7.0,11.0,54,0.00,,BKN080,0.00,VWS V14.01,2013-03-14 22:08:00,
2013-03-14 18:13:00,30.2,14.7,29.73,WSW,257,1.0,12.0,52,0.00,,BKN080,0.00,VWS V14.01,2013-03-14 22:13:00,
2013-03-14 18:18:00,30.1,15.5,29.73,WSW,238,2.0,12.0,54,0.00,,,0.00,WUHU216VWC,2013-03-14 22:18:00,
2013-03-14 18:23:00,30.0,15.0,29.73,SW,233,3.0,10.0,53,0.00,,BKN080,0.00,VWS V14.01,2013-03-14 22:23:00,
2013-03-14 18:28:00,29.8,14.3,29.74,SW,236,3.0,11.0,52,0.00,,BKN080,0.00,VWS V14.01,2013-03-14 22:28:00,
2013-03-14 18:30:00,29.8,14.3,29.73,West,270,4.0,13.0,52,0.00,,,0.00,VWS V14.01,2013-03-14 22:30:00,
2013-03-14 18:33:00,29.7,14.7,29.74,NW,305,1.0,11.0,53,0.00,,BKN080,0.00,VWS V14.01,2013-03-14 22:33:00,
2013-03-14 18:38:00,29.6,14.1,29.74,WSW,242,2.0,7.0,52,0.00,,BKN080,0.00,VWS V14.01,2013-03-14 22:38:00,
2013-03-14 18:43:00,29.4,14.4,29.74,West,279,3.0,7.0,53,0.00,,BKN080,0.00,VWS V14.01,2013-03-14 22:43:00,
2013-03-14 18:48:00,29.2,13.8,29.75,West,281,3.0,9.0,52,0.00,,BKN080,0.00,VWS V14.01,2013-03-14 22:48:00,
2013-03-14 18:53:00,29.0,13.6,29.75,WSW,252,4.0,11.0,52,0.00,,,0.00,WUHU216VWC,2013-03-14 22:53:00,
2013-03-14 18:58:00,28.8,13.8,29.75,West,267,0.0,11.0,53,0.00,,,0.00,WUHU216VWC,2013-03-14 22:58:00,
2013-03-14 19:00:00,28.7,13.7,29.75,West,270,3.0,17.0,53,0.00,,,0.00,VWS V14.01,2013-03-14 23:00:00,
2013-03-14 19:03:00,28.5,13.6,29.76,WSW,245,7.0,9.0,53,0.00,,BKN080,0.00,VWS V14.01,2013-03-14 23:03:00,
2013-03-14 19:08:00,28.3,12.9,29.76,WSW,252,1.0,12.0,52,0.00,,,0.00,WUHU216VWC,2013-03-14 23:08:00,
2013-03-14 19:13:00,28.0,12.7,29.76,West,263,4.0,10.0,52,0.00,,BKN080,0.00,VWS V14.01,2013-03-14 23:13:00,
2013-03-14 19:18:00,27.8,12.9,29.77,NNE,15,2.0,7.0,53,0.00,,BKN080,0.00,VWS V14.01,2013-03-14 23:18:00,
2013-03-14 19:23:00,27.6,12.7,29.77,WNW,295,5.0,10.0,53,0.00,,,0.00,WUHU216VWC,2013-03-14 23:23:00,
2013-03-14 19:28:00,27.4,11.7,29.77,WNW,291,1.0,22.0,51,0.00,,BKN080,0.00,VWS V14.01,2013-03-14 23:28:00,
2013-03-14 19:30:00,27.3,11.6,29.77,West,270,4.0,22.0,51,0.00,,,0.00,VWS V14.01,2013-03-14 23:30:00,
2013-03-14 19:33:00,27.2,11.9,29.78,West,266,5.0,22.0,52,0.00,,BKN080,0.00,VWS V14.01,2013-03-14 23:33:00,
2013-03-14 19:38:00,27.1,11.8,29.78,WSW,246,1.0,22.0,52,0.00,,,0.00,WUHU216VWC,2013-03-14 23:38:00,
2013-03-14 19:43:00,27.0,12.2,29.78,WSW,254,2.0,22.0,53,0.00,,,0.00,WUHU216VWC,2013-03-14 23:43:00,
2013-03-14 19:48:00,26.8,11.6,29.78,WSW,251,5.0,8.0,52,0.00,,BKN080,0.00,VWS V14.01,2013-03-14 23:48:00,
2013-03-14 19:53:00,26.6,10.9,29.79,SSW,205,2.0,12.0,51,0.00,,BKN080,0.00,VWS V14.01,2013-03-14 23:53:00,
2013-03-14 19:58:00,26.4,11.2,29.79,West,261,3.0,12.0,52,0.00,,,0.00,WUHU216VWC,2013-03-14 23:58:00,
2013-03-14 20:00:00,26.4,11.2,29.79,WSW,248,3.0,13.0,52,0.00,,,0.00,VWS V14.01,2013-03-15 00:00:00,
2013-03-14 20:03:00,26.2,11.4,29.79,West,259,3.0,12.0,53,0.00,,,0.00,WUHU216VWC,2013-03-15 00:03:00,
2013-03-14 20:08:00,26.0,11.6,29.79,West,275,1.0,10.0,54,0.00,,BKN080,0.00,VWS V14.01,2013-03-15 00:08:00,
2013-03-14 20:13:00,25.8,11.9,29.79,SW,235,7.0,10.0,55,0.00,,BKN080,0.00,VWS V14.01,2013-03-15 00:13:00,
2013-03-14 20:18:00,25.5,11.6,29.80,West,273,3.0,10.0,55,0.00,,BKN080,0.00,VWS V14.01,2013-03-15 00:18:00,
2013-03-14 20:23:00,25.4,11.5,29.80,NW,307,0.0,8.0,55,0.00,,BKN080,0.00,VWS V14.01,2013-03-15 00:23:00,
2013-03-14 20:28:00,25.2,11.7,29.80,WSW,252,6.0,12.0,56,0.00,,,0.00,WUHU216VWC,2013-03-15 00:28:00,
2013-03-14 20:30:00,25.2,11.7,29.80,West,270,3.0,14.0,56,0.00,,,0.00,VWS V14.01,2013-03-15 00:30:00,
2013-03-14 20:33:00,25.1,12.0,29.81,WSW,253,0.0,12.0,57,0.00,,BKN080,0.00,VWS V14.01,2013-03-15 00:33:00,
2013-03-14 20:38:00,25.0,11.9,29.81,NNE,17,0.0,9.0,57,0.00,,BKN080,0.00,VWS V14.01,2013-03-15 00:38:00,
2013-03-14 20:43:00,24.9,12.2,29.81,WSW,254,1.0,9.0,58,0.00,,BKN080,0.00,VWS V14.01,2013-03-15 00:43:00,
2013-03-14 20:48:00,24.8,12.1,29.81,NW,319,2.0,8.0,58,0.00,,BKN080,0.00,VWS V14.01,2013-03-15 00:48:00,
2013-03-14 20:53:00,24.7,12.8,29.81,WNW,282,0.0,7.0,60,0.00,,BKN080,0.00,VWS V14.01,2013-03-15 00:53:00,
2013-03-14 20:58:00,24.6,12.7,29.81,NW,316,0.0,6.0,60,0.00,,BKN080,0.00,VWS V14.01,2013-03-15 00:58:00,
2013-03-14 21:00:00,24.6,12.7,29.81,West,270,2.0,9.0,60,0.00,,,0.00,VWS V14.01,2013-03-15 01:00:00,
2013-03-14 21:03:00,24.6,12.7,29.81,SSW,210,3.0,6.0,60,0.00,,BKN042,0.00,VWS V14.01,2013-03-15 01:03:00,
2013-03-14 21:08:00,24.5,12.6,29.81,WSW,253,1.0,5.0,60,0.00,,BKN042,0.00,VWS V14.01,2013-03-15 01:08:00,
2013-03-14 21:13:00,24.4,12.5,29.81,West,268,2.0,7.0,60,0.00,,BKN042,0.00,VWS V14.01,2013-03-15 01:13:00,
2013-03-14 21:18:00,24.4,12.5,29.81,WSW,250,5.0,7.0,60,0.00,,BKN042,0.00,VWS V14.01,2013-03-15 01:18:00,
2013-03-14 21:23:00,24.3,12.4,29.81,NNW,336,0.0,8.0,60,0.00,,BKN042,0.00,VWS V14.01,2013-03-15 01:23:00,
2013-03-14 21:28:00,24.2,11.6,29.82,North,355,3.0,8.0,58,0.00,,BKN042,0.00,VWS V14.01,2013-03-15 01:28:00,
2013-03-14 21:30:00,24.2,11.2,29.82,West,270,2.0,8.0,57,0.00,,,0.00,VWS V14.01,2013-03-15 01:30:00,
2013-03-14 21:33:00,24.0,10.2,29.82,WNW,282,0.0,8.0,55,0.00,,BKN042,0.00,VWS V14.01,2013-03-15 01:33:00,
2013-03-14 21:38:00,23.9,10.5,29.82,North,349,1.0,8.0,56,0.00,,BKN042,0.00,VWS V14.01,2013-03-15 01:38:00,
2013-03-14 21:43:00,23.7,9.9,29.82,North,355,2.0,8.0,55,0.00,,BKN042,0.00,VWS V14.01,2013-03-15 01:43:00,
2013-03-14 21:48:00,23.5,9.7,29.82,ENE,70,1.0,8.0,55,0.00,,,0.00,WUHU216VWC,2013-03-15 01:48:00,
2013-03-14 21:53:00,23.3,9.1,29.82,NNW,344,0.0,10.0,54,0.00,,BKN042,0.00,VWS V14.01,2013-03-15 01:53:00,
2013-03-14 21:58:00,23.2,9.0,29.82,West,271,2.0,7.0,54,0.00,,BKN042,0.00,VWS V14.01,2013-03-15 01:58:00,
2013-03-14 22:00:00,23.2,9.0,29.82,North,0,3.0,11.0,54,0.00,,,0.00,VWS V14.01,2013-03-15 02:00:00,
2013-03-14 22:03:00,23.1,8.9,29.82,North,355,2.0,10.0,54,0.00,,,0.00,WUHU216VWC,2013-03-15 02:03:00,
2013-03-14 22:08:00,23.0,9.3,29.82,North,355,3.0,9.0,55,0.00,,,0.00,WUHU216VWC,2013-03-15 02:08:00,
2013-03-14 22:13:00,23.0,9.3,29.82,NNW,343,1.0,9.0,55,0.00,,,0.00,WUHU216VWC,2013-03-15 02:13:00,
2013-03-14 22:18:00,22.9,9.2,29.82,WNW,293,1.0,4.0,55,0.00,,BKN042,0.00,VWS V14.01,2013-03-15 02:18:00,
2013-03-14 22:23:00,22.8,9.5,29.82,WSW,250,7.0,7.0,56,0.00,,,0.00,WUHU216VWC,2013-03-15 02:23:00,
2013-03-14 22:28:00,22.8,9.5,29.82,WNW,295,0.0,8.0,56,0.00,,,0.00,WUHU216VWC,2013-03-15 02:28:00,
2013-03-14 22:30:00,22.7,9.4,29.82,North,0,2.0,10.0,56,0.00,,,0.00,VWS V14.01,2013-03-15 02:30:00,
2013-03-14 22:33:00,22.7,9.4,29.82,NNW,335,0.0,8.0,56,0.00,,,0.00,WUHU216VWC,2013-03-15 02:33:00,
2013-03-14 22:38:00,22.6,9.7,29.82,NNW,335,2.0,8.0,57,0.00,,,0.00,WUHU216VWC,2013-03-15 02:38:00,
2013-03-14 22:43:00,22.4,9.5,29.82,NNW,348,1.0,5.0,57,0.00,,,0.00,WUHU216VWC,2013-03-15 02:43:00,
2013-03-14 22:48:00,22.4,9.5,29.82,NNW,335,0.0,4.0,57,0.00,,BKN042,0.00,VWS V14.01,2013-03-15 02:48:00,
2013-03-14 22:53:00,22.2,9.3,29.82,West,275,0.0,6.0,57,0.00,,BKN042,0.00,VWS V14.01,2013-03-15 02:53:00,
2013-03-14 22:58:00,22.2,10.1,29.82,North,360,3.0,4.0,59,0.00,,BKN042,0.00,VWS V14.01,2013-03-15 02:58:00,
2013-03-14 23:00:00,22.1,9.6,29.82,NNW,338,1.0,7.0,58,0.00,,,0.00,VWS V14.01,2013-03-15 03:00:00,
2013-03-14 23:03:00,22.1,9.6,29.82,North,355,0.0,4.0,58,0.00,,SCT095,0.00,VWS V14.01,2013-03-15 03:03:00,
2013-03-14 23:08:00,22.0,9.5,29.82,WSW,250,2.0,4.0,58,0.00,,,0.00,WUHU216VWC,2013-03-15 03:08:00,
2013-03-14 23:13:00,21.9,9.4,29.82,West,264,0.0,7.0,58,0.00,,SCT095,0.00,VWS V14.01,2013-03-15 03:13:00,
2013-03-14 23:18:00,21.9,9.8,29.82,WNW,286,1.0,7.0,59,0.00,,,0.00,WUHU216VWC,2013-03-15 03:18:00,
2013-03-14 23:23:00,21.8,9.3,29.82,NNW,340,0.0,4.0,58,0.00,,SCT095,0.00,VWS V14.01,2013-03-15 03:23:00,
2013-03-14 23:28:00,21.7,9.2,29.82,West,268,0.0,4.0,58,0.00,,SCT095,0.00,VWS V14.01,2013-03-15 03:28:00,
2013-03-14 23:30:00,21.7,9.2,29.82,West,270,1.0,7.0,58,0.00,,,0.00,VWS V14.01,2013-03-15 03:30:00,
2013-03-14 23:33:00,21.7,9.2,29.82,West,267,1.0,4.0,58,0.00,,SCT095,0.00,VWS V14.01,2013-03-15 03:33:00,
2013-03-14 23:38:00,21.6,9.1,29.82,North,360,0.0,2.0,58,0.00,,SCT095,0.00,VWS V14.01,2013-03-15 03:38:00,
2013-03-14 23:43:00,21.6,9.1,29.82,North,360,0.0,4.0,58,0.00,,,0.00,WUHU216VWC,2013-03-15 03:43:00,
2013-03-14 23:48:00,21.5,9.0,29.82,North,350,2.0,4.0,58,0.00,,SCT095,0.00,VWS V14.01,2013-03-15 03:48:00,
2013-03-14 23:53:00,21.5,9.8,29.82,North,355,0.0,4.0,60,0.00,,,0.00,WUHU216VWC,2013-03-15 03:53:00,
2013-03-14 23:58:00,21.4,8.9,29.82,North,355,0.0,3.0,58,0.00,,SCT095,0.00,VWS V14.01,2013-03-15 03:58:00,